Weather History for KUIN - March, 2012

Change the Weather History Date:

Friday, March 2, 2012

  Actual Average Record
Temperature  
Mean Temperature 37 °F 36 °F  
Max Temperature 41 °F 45 °F 77 °F (1976)
Min Temperature 32 °F 28 °F -2 °F (1980)
Degree Days  
Heating Degree Days 28 29  
Month to date heating degree days 58  
Since 1 July heating degree days 4400  
Cooling Degree Days 0 0  
Month to date cooling degree days 0  
Year to date cooling degree days 0  
Moisture  
Dew Point 32 °F    
Average Humidity 86    
Maximum Humidity 93    
Minimum Humidity 70    
Precipitation  
Precipitation 0.03 in 0.08 in 1.25 in (1970)
Month to date precipitation 0.16  
Year to date precipitation 3.56  
Sea Level Pressure  
Sea Level Pressure 29.60 in    
Wind  
Wind Speed 14 mph (NW)    
Max Wind Speed 25 mph    
Max Gust Speed 36 mph    
Visibility 6 miles    
Events Rain , Snow    
T = Trace of Precipitation, MM = Missing Value Source: NWS Daily Summary

Daily Weather History Graph

Daily Weather History Graph

Search for Another Location

Airport or City:

Trip Planner

Search our weather history database for the weather conditions in past years. The results will help you decide how hot, cold, wet, or windy it might be!

Date:

Astronomy

Mar. 02, 2012 Rise Set
Actual Time 6:35 AM CST 5:58 PM CST
Civil Twilight 6:08 AM CST 6:25 PM CST
Nautical Twilight 5:37 AM CST 6:56 PM CST
Astronomical Twilight 5:06 AM CST 7:28 PM CST
Moon 12:10 PM CST (3/2) 2:25 AM CST (3/2)
Length of Visible Light 12h 16m
Length of Day
11h 22m
Waxing Gibbous, 66% of the Moon is Illuminated
Mar 2
Waxing Gibbous
Mar 8
Full
Mar 14
Last Quarter
Mar 22
New
Mar 30
First Quarter

Hourly Weather History & Observations

Time (CST) Temp. Windchill Dew Point Humidity Pressure Visibility Wind Dir Wind Speed Gust Speed Precip Events Conditions
12:54 AM 41.0 °F 35.8 °F 32.0 °F 70% 29.54 in 10.0 mi ENE 8.1 mph - N/A   Clear
1:54 AM 37.0 °F 31.6 °F 30.9 °F 79% 29.52 in 10.0 mi NE 6.9 mph - N/A   Clear
2:54 AM 34.0 °F 26.0 °F 30.0 °F 85% 29.50 in 10.0 mi NNE 10.4 mph - N/A   Clear
3:54 AM 34.0 °F 26.6 °F 30.9 °F 89% 29.47 in 10.0 mi NNE 9.2 mph - N/A   Clear
4:54 AM 36.0 °F 30.3 °F 32.0 °F 86% 29.50 in 8.0 mi North 6.9 mph - N/A   Scattered Clouds
5:54 AM 36.0 °F 28.5 °F 32.0 °F 86% 29.49 in 7.0 mi NNE 10.4 mph - N/A   Mostly Cloudy
6:54 AM 36.0 °F 28.5 °F 30.9 °F 82% 29.47 in 7.0 mi North 10.4 mph - N/A   Mostly Cloudy
7:54 AM 35.1 °F 25.5 °F 32.0 °F 89% 29.44 in 5.0 mi NNE 15.0 mph - 0.01 in   Overcast
8:19 AM 35.6 °F 27.1 °F 33.8 °F 93% 29.44 in 4.0 mi North 12.7 mph - N/A   Overcast
8:54 AM 37.0 °F 28.1 °F 33.1 °F 86% 29.44 in 5.0 mi NNW 15.0 mph - N/A   Overcast
9:47 AM 39.2 °F 30.8 °F 33.8 °F 81% 29.43 in 6.0 mi NNW 15.0 mph - N/A   Haze
9:54 AM 39.0 °F 29.9 °F 34.0 °F 82% 29.44 in 6.0 mi NNW 17.3 mph - N/A   Haze
10:54 AM 37.9 °F 29.2 °F 33.1 °F 83% 29.44 in 5.0 mi NW 15.0 mph - N/A   Haze
11:54 AM 37.9 °F 27.3 °F 32.0 °F 79% 29.49 in 5.0 mi NW 21.9 mph 26.5 mph N/A   Haze
12:54 PM 36.0 °F 23.9 °F 33.1 °F 89% 29.52 in 3.0 mi NW 25.3 mph 32.2 mph 0.01 in Rain Light Rain
12:59 PM 35.6 °F 23.4 °F 32.0 °F 87% 29.51 in 4.0 mi NW 25.3 mph 35.7 mph 0.00 in Rain Light Rain
1:06 PM 35.6 °F 24.2 °F 33.8 °F 93% 29.51 in 4.0 mi NW 21.9 mph 35.7 mph 0.00 in Snow Light Snow
1:10 PM 35.6 °F 24.2 °F 32.0 °F 87% 29.53 in 2.5 mi NW 21.9 mph 27.6 mph 0.00 in Snow Light Snow
1:19 PM 33.8 °F 22.2 °F 32.0 °F 93% 29.54 in 1.2 mi NW 20.7 mph 27.6 mph 0.00 in Snow Light Snow
1:51 PM 33.8 °F 22.2 °F 30.2 °F 87% 29.57 in 0.8 mi WNW 20.7 mph 28.8 mph 0.00 in Snow Light Snow
1:54 PM 33.1 °F 21.2 °F 30.9 °F 92% 29.60 in 0.8 mi WNW 20.7 mph - 0.01 in Snow Light Snow
2:16 PM 33.8 °F 22.8 °F 30.2 °F 87% 29.59 in 1.2 mi WNW 18.4 mph 25.3 mph 0.00 in Snow Light Snow
2:36 PM 33.8 °F 22.8 °F 32.0 °F 93% 29.62 in 3.0 mi WNW 18.4 mph 31.1 mph N/A Snow Light Snow
2:46 PM 33.8 °F 22.5 °F 32.0 °F 93% 29.62 in 2.0 mi NW 19.6 mph 29.9 mph 0.00 in Snow Light Snow
2:54 PM 34.0 °F 22.1 °F 32.0 °F 92% 29.65 in 1.5 mi NW 21.9 mph 28.8 mph 0.00 in Snow Light Snow
3:11 PM 35.6 °F 24.0 °F 32.0 °F 87% 29.67 in 2.5 mi WNW 23.0 mph 31.1 mph 0.00 in Snow Light Snow
3:22 PM 35.6 °F 24.5 °F 32.0 °F 87% 29.67 in 3.0 mi WNW 20.7 mph 29.9 mph 0.00 in Snow Light Snow
3:54 PM 36.0 °F 24.2 °F 33.1 °F 89% 29.72 in 8.0 mi WNW 24.2 mph 31.1 mph 0.00 in Rain Light Rain
4:16 PM 37.4 °F 26.9 °F 33.8 °F 87% 29.72 in 10.0 mi WNW 20.7 mph - 0.00 in Rain Light Rain
4:54 PM 37.0 °F 27.7 °F 33.1 °F 86% 29.74 in 10.0 mi NW 16.1 mph 24.2 mph 0.00 in   Overcast
5:54 PM 36.0 °F 29.0 °F 32.0 °F 86% 29.78 in 10.0 mi West 9.2 mph - N/A   Clear
6:54 PM 34.0 °F 28.8 °F 30.9 °F 89% 29.81 in 10.0 mi SW 5.8 mph - N/A   Clear
7:54 PM 35.1 °F 27.9 °F 30.9 °F 85% 29.81 in 10.0 mi WSW 9.2 mph - N/A   Clear
8:54 PM 33.1 °F 26.9 °F 30.0 °F 89% 29.81 in 10.0 mi SW 6.9 mph - N/A   Clear
9:54 PM 33.1 °F 27.7 °F 28.9 °F 85% 29.81 in 10.0 mi SW 5.8 mph - N/A   Clear
10:54 PM 34.0 °F 28.0 °F 30.0 °F 85% 29.83 in 10.0 mi West 6.9 mph - N/A   Mostly Cloudy
11:54 PM 32.0 °F 23.0 °F 27.0 °F 82% 29.83 in 10.0 mi NW 11.5 mph - N/A   Clear